Weather History for Chipley, FL

Change the Weather History Date:

Wednesday, January 23, 2013

  Actual Average (KMAI) Record (KMAI)
Temperature  
Mean Temperature 61 °F 51 °F  
Max Temperature 71 °F 62 °F 79 °F (2006)
Min Temperature 51 °F 40 °F 21 °F (2003)
Degree Days  
Heating Degree Days 4    
Month to date heating degree days  
Since 1 July heating degree days  
Cooling Degree Days 0    
Month to date cooling degree days  
Year to date cooling degree days  
Growing Degree Days 11 (Base 50)    
Moisture  
Dew Point 46 °F    
Average Humidity 63    
Maximum Humidity 82    
Minimum Humidity 35    
Precipitation  
Precipitation 0.00 in 0.19 in 2.33 in (1999)
Month to date precipitation 3.52  
Year to date precipitation 3.52  
Sea Level Pressure  
Sea Level Pressure 30.35 in    
Wind  
Wind Speed 4 mph (South)    
Max Wind Speed 9 mph    
Max Gust Speed -    
Visibility 10 miles    
Events      
T = Trace of Precipitation, MM = Missing Value Source: NWS Daily Summary

Daily Weather History Graph

Daily Weather History Graph

Search for Another Location

Airport:

Trip Planner

Search our weather history database for the weather conditions in past years. The results will help you decide how hot, cold, wet, or windy it might be!

Date:

Astronomy

Jan. 23, 2013 Rise Set
Actual Time 6:38 AM CST 5:10 PM CST
Civil Twilight 6:12 AM CST 5:36 PM CST
Nautical Twilight 5:43 AM CST 6:05 PM CST
Astronomical Twilight 5:14 AM CST 6:34 PM CST
Moon 2:23 PM CST 3:46 AM CST
Length of Visible Light 11h 23m
Length of Day
10h 32m
Waxing Gibbous, 89% of the Moon is Illuminated
Jan 23
Waxing Gibbous
Jan 26
Full
Feb 3
Last Quarter
Feb 10
New
Feb 17
First Quarter

Hourly Weather History & Observations

Time (CST) Temp. Dew Point Humidity Pressure Visibility Wind Dir Wind Speed Gust Speed Precip Events Conditions
12:15 AM 51.8 °F 46.4 °F 82% 30.35 in 10.0 mi Calm Calm - N/A   Clear
12:35 AM 51.8 °F 46.4 °F 82% 30.34 in 10.0 mi Calm Calm - N/A   Clear
12:55 AM 51.8 °F 46.4 °F 82% 30.35 in 10.0 mi SSE 3.5 mph - N/A   Clear
1:15 AM 51.8 °F 46.4 °F 82% 30.35 in 10.0 mi South 3.5 mph - N/A   Clear
1:35 AM 51.8 °F 46.4 °F 82% 30.35 in 10.0 mi SSE 3.5 mph - N/A   Clear
1:55 AM 51.8 °F 46.4 °F 82% 30.34 in 10.0 mi Calm Calm - N/A   Clear
2:15 AM 51.8 °F 46.4 °F 82% 30.34 in 10.0 mi Calm Calm - N/A   Clear
2:35 AM 51.8 °F 46.4 °F 82% 30.34 in 10.0 mi SSE 3.5 mph - N/A   Clear
2:55 AM 51.8 °F 46.4 °F 82% 30.34 in 10.0 mi SSE 3.5 mph - N/A   Clear
3:15 AM 51.8 °F 46.4 °F 82% 30.34 in 10.0 mi South 3.5 mph - N/A   Clear
3:35 AM 51.8 °F 46.4 °F 82% 30.34 in 10.0 mi South 3.5 mph - N/A   Clear
3:55 AM 51.8 °F 46.4 °F 82% 30.34 in 10.0 mi South 4.6 mph - N/A   Clear
4:15 AM 51.8 °F 46.4 °F 82% 30.34 in 10.0 mi South 4.6 mph - N/A   Clear
4:35 AM 51.8 °F 46.4 °F 82% 30.34 in 10.0 mi SSE 4.6 mph - N/A   Clear
4:55 AM 51.8 °F 46.4 °F 82% 30.34 in 10.0 mi South 4.6 mph - N/A   Clear
5:15 AM 51.8 °F 44.6 °F 76% 30.35 in 10.0 mi SSE 4.6 mph - N/A   Clear
5:35 AM 51.8 °F 44.6 °F 76% 30.35 in 10.0 mi South 4.6 mph - N/A   Clear
5:55 AM 51.8 °F 44.6 °F 76% 30.36 in 10.0 mi South 4.6 mph - N/A   Clear
6:15 AM 51.8 °F 44.6 °F 76% 30.36 in 10.0 mi SSE 5.8 mph - N/A   Clear
6:35 AM 51.8 °F 44.6 °F 76% 30.37 in 10.0 mi SSE 5.8 mph - N/A   Clear
6:55 AM 51.8 °F 44.6 °F 76% 30.37 in 10.0 mi SSE 5.8 mph - N/A   Clear
7:15 AM 51.8 °F 46.4 °F 82% 30.38 in 10.0 mi SSE 5.8 mph - N/A   Clear
7:35 AM 53.6 °F 46.4 °F 77% 30.38 in 10.0 mi SSE 3.5 mph - N/A   Clear
7:55 AM 53.6 °F 46.4 °F 77% 30.38 in 10.0 mi SSE 3.5 mph - N/A   Clear
8:15 AM 53.6 °F 46.4 °F 77% 30.39 in 10.0 mi SSE 3.5 mph - N/A   Clear
8:35 AM 55.4 °F 44.6 °F 67% 30.39 in 9.0 mi SSE 3.5 mph - N/A   Clear
8:55 AM 57.2 °F 44.6 °F 63% 30.40 in 10.0 mi SSE 4.6 mph - N/A   Clear
9:15 AM 60.8 °F 46.4 °F 59% 30.41 in 10.0 mi SSE 3.5 mph - N/A   Clear
9:35 AM 60.8 °F 44.6 °F 55% 30.42 in 10.0 mi South 4.6 mph - N/A   Clear
9:55 AM 62.6 °F 44.6 °F 52% 30.42 in 10.0 mi SSE 4.6 mph - N/A   Clear
10:15 AM 64.4 °F 44.6 °F 49% 30.42 in 10.0 mi South 4.6 mph - N/A   Clear
10:35 AM 64.4 °F 42.8 °F 45% 30.41 in 10.0 mi South 3.5 mph - N/A   Clear
10:55 AM 66.2 °F 42.8 °F 43% 30.40 in 10.0 mi SSW 5.8 mph - N/A   Clear
11:15 AM 66.2 °F 42.8 °F 43% 30.40 in 10.0 mi SSW 4.6 mph - N/A   Clear
11:35 AM 68.0 °F 42.8 °F 40% 30.39 in 10.0 mi SW 8.1 mph - N/A   Clear
11:55 AM 68.0 °F 41.0 °F 37% 30.38 in 10.0 mi South 5.8 mph - N/A   Clear
12:15 PM 68.0 °F 41.0 °F 37% 30.37 in 10.0 mi SW 4.6 mph - N/A   Clear
12:35 PM 69.8 °F 42.8 °F 38% 30.36 in 10.0 mi SSW 6.9 mph - N/A   Clear
12:55 PM 69.8 °F 41.0 °F 35% 30.35 in 10.0 mi WSW 3.5 mph - N/A   Clear
1:15 PM 69.8 °F 41.0 °F 35% 30.34 in 10.0 mi South 6.9 mph - N/A   Clear
1:35 PM 69.8 °F 42.8 °F 38% 30.34 in 10.0 mi South 8.1 mph - N/A   Clear
1:55 PM 69.8 °F 42.8 °F 38% 30.33 in 10.0 mi SW 8.1 mph - N/A   Clear
2:15 PM 69.8 °F 42.8 °F 38% 30.34 in 10.0 mi WSW 3.5 mph - N/A   Clear
2:35 PM 71.6 °F 42.8 °F 35% 30.33 in 10.0 mi SW 5.8 mph - N/A   Clear
3:15 PM 71.6 °F 42.8 °F 35% 30.32 in 10.0 mi South 5.8 mph - N/A   Clear
3:35 PM 71.6 °F 42.8 °F 35% 30.31 in 10.0 mi South 9.2 mph - N/A   Clear
3:55 PM 69.8 °F 42.8 °F 38% 30.32 in 10.0 mi South 8.1 mph - N/A   Clear
4:15 PM 69.8 °F 44.6 °F 40% 30.32 in 10.0 mi SSW 9.2 mph - N/A   Clear
4:35 PM 68.0 °F 44.6 °F 43% 30.31 in 10.0 mi SSW 6.9 mph - N/A   Clear
4:55 PM 66.2 °F 44.6 °F 46% 30.32 in 10.0 mi SSW 9.2 mph - N/A   Clear
5:15 PM 66.2 °F 46.4 °F 49% 30.32 in 10.0 mi South 6.9 mph - N/A   Clear
5:35 PM 66.2 °F 44.6 °F 46% 30.32 in 10.0 mi South 6.9 mph - N/A   Clear
5:55 PM 64.4 °F 44.6 °F 49% 30.32 in 10.0 mi South 8.1 mph - N/A   Clear
6:15 PM 64.4 °F 44.6 °F 49% 30.32 in 10.0 mi South 6.9 mph - N/A   Clear
6:35 PM 64.4 °F 44.6 °F 49% 30.32 in 10.0 mi SSW 8.1 mph - N/A   Clear
6:55 PM 62.6 °F 46.4 °F 55% 30.32 in 10.0 mi South 6.9 mph - N/A   Clear
7:15 PM 62.6 °F 48.2 °F 59% 30.32 in 10.0 mi South 8.1 mph - N/A   Clear
7:35 PM 62.6 °F 48.2 °F 59% 30.33 in 10.0 mi South 5.8 mph - N/A   Clear
7:55 PM 62.6 °F 48.2 °F 59% 30.32 in 10.0 mi South 6.9 mph - N/A   Clear
8:15 PM 60.8 °F 50.0 °F 68% 30.33 in 10.0 mi South 5.8 mph - N/A   Clear
8:35 PM 60.8 °F 50.0 °F 68% 30.33 in 10.0 mi South 5.8 mph - N/A   Clear
8:55 PM 60.8 °F 50.0 °F 68% 30.33 in 10.0 mi South 5.8 mph - N/A   Clear
9:15 PM 60.8 °F 50.0 °F 68% 30.33 in 10.0 mi South 5.8 mph - N/A   Clear
9:35 PM 60.8 °F 50.0 °F 68% 30.33 in 10.0 mi South 4.6 mph - N/A   Clear
9:55 PM 59.0 °F 51.8 °F 77% 30.33 in 10.0 mi South 4.6 mph - N/A   Clear
10:15 PM 59.0 °F 51.8 °F 77% 30.33 in 10.0 mi South 4.6 mph - N/A   Clear
10:35 PM 59.0 °F 51.8 °F 77% 30.33 in 10.0 mi South 5.8 mph - N/A   Clear
10:55 PM 59.0 °F 51.8 °F 77% 30.32 in 10.0 mi South 5.8 mph - N/A   Clear
11:15 PM 59.0 °F 51.8 °F 77% 30.32 in 10.0 mi South 4.6 mph - N/A   Clear
11:35 PM 57.2 °F 51.8 °F 82% 30.32 in 10.0 mi South 5.8 mph - N/A   Clear
11:55 PM 57.2 °F 51.8 °F 82% 30.32 in 10.0 mi South 4.6 mph - N/A   Clear